Time,TemperatureF,DewpointF,PressureIn,WindDirection,WindDirectionDegrees,WindSpeedMPH,WindSpeedGustMPH,Humidity,HourlyPrecipIn,Conditions,Clouds,dailyrainin,SoftwareType,DateUTC
2013-07-25 00:02:00,68.5,63.1,29.97,SW,236,0.0,0.0,83,0.00,CLR,SKC,0.00,WeatherDisplay:10.37,2013-07-25 05:02:00,
2013-07-25 00:07:00,68.3,62.9,29.97,SW,236,0.0,0.0,83,0.00,CLR,SKC,0.00,WeatherDisplay:10.37,2013-07-25 05:07:00,
2013-07-25 00:12:00,68.2,63.2,29.97,ESE,119,0.0,0.0,84,0.00,CLR,SKC,0.00,WeatherDisplay:10.37,2013-07-25 05:12:00,
2013-07-25 00:17:00,67.9,62.9,29.97,ESE,115,0.0,0.0,84,0.00,CLR,SKC,0.00,WeatherDisplay:10.37,2013-07-25 05:17:00,
2013-07-25 00:22:00,67.6,62.9,29.97,ESE,115,0.0,0.0,85,0.00,CLR,SKC,0.00,WeatherDisplay:10.37,2013-07-25 05:22:00,
2013-07-25 00:27:00,67.4,63.1,29.97,ESE,115,0.0,0.0,86,0.00,CLR,SKC,0.00,WeatherDisplay:10.37,2013-07-25 05:27:00,
2013-07-25 00:32:00,67.4,63.1,29.96,ESE,115,0.0,0.0,86,0.00,CLR,SKC,0.00,WeatherDisplay:10.37,2013-07-25 05:32:00,
2013-07-25 00:37:00,67.5,63.2,29.96,ESE,114,0.0,0.0,86,0.00,CLR,SKC,0.00,WeatherDisplay:10.37,2013-07-25 05:37:00,
2013-07-25 00:42:00,67.3,63.3,29.96,ESE,114,0.0,0.0,87,0.00,CLR,SKC,0.00,WeatherDisplay:10.37,2013-07-25 05:42:00,
2013-07-25 00:47:00,67.4,63.4,29.96,East,101,0.0,0.0,87,0.00,CLR,SKC,0.00,WeatherDisplay:10.37,2013-07-25 05:47:00,
2013-07-25 00:52:00,67.5,63.2,29.96,East,101,0.0,0.0,86,0.00,CLR,SKC,0.00,WeatherDisplay:10.37,2013-07-25 05:52:00,
2013-07-25 00:57:00,67.4,63.4,29.97,East,101,0.0,0.0,87,0.00,CLR,SKC,0.00,WeatherDisplay:10.37,2013-07-25 05:57:00,
2013-07-25 01:02:00,67.3,63.3,29.97,East,101,0.0,0.0,87,0.00,CLR,SKC,0.00,WeatherDisplay:10.37,2013-07-25 06:02:00,
2013-07-25 01:07:00,67.1,63.1,29.97,East,101,0.0,0.0,87,0.00,CLR,SKC,0.00,WeatherDisplay:10.37,2013-07-25 06:07:00,
2013-07-25 01:12:00,67.0,63.0,29.97,East,101,0.0,0.0,87,0.00,CLR,SKC,0.00,WeatherDisplay:10.37,2013-07-25 06:12:00,
2013-07-25 01:17:00,67.0,63.0,29.98,East,101,0.0,0.0,87,0.00,CLR,SKC,0.00,WeatherDisplay:10.37,2013-07-25 06:17:00,
2013-07-25 01:22:00,66.9,62.9,29.98,East,101,0.0,0.0,87,0.00,CLR,SKC,0.00,WeatherDisplay:10.37,2013-07-25 06:22:00,
2013-07-25 01:27:00,66.9,62.9,29.98,East,101,0.0,0.0,87,0.00,CLR,SKC,0.00,WeatherDisplay:10.37,2013-07-25 06:27:00,
2013-07-25 01:32:00,66.9,63.2,29.98,East,101,0.0,0.0,88,0.00,CLR,SKC,0.00,WeatherDisplay:10.37,2013-07-25 06:32:00,
2013-07-25 01:37:00,66.8,63.1,29.97,East,100,1.2,1.2,88,0.00,CLR,SKC,0.00,WeatherDisplay:10.37,2013-07-25 06:37:00,
2013-07-25 01:42:00,66.8,63.5,29.98,East,100,0.0,0.0,89,0.00,CLR,SKC,0.00,WeatherDisplay:10.37,2013-07-25 06:42:00,
2013-07-25 01:47:00,66.7,63.4,29.98,East,100,0.0,0.0,89,0.00,CLR,SKC,0.00,WeatherDisplay:10.37,2013-07-25 06:47:00,
2013-07-25 01:52:00,66.7,63.4,29.98,East,100,0.0,0.0,89,0.00,CLR,SKC,0.00,WeatherDisplay:10.37,2013-07-25 06:52:00,
2013-07-25 01:57:00,66.7,63.4,29.98,East,100,0.0,0.0,89,0.00,CLR,SKC,0.00,WeatherDisplay:10.37,2013-07-25 06:57:00,
2013-07-25 02:02:00,66.9,63.6,29.98,East,100,0.0,0.0,89,0.00,CLR,SKC,0.00,WeatherDisplay:10.37,2013-07-25 07:02:00,
2013-07-25 02:07:00,66.9,63.2,29.98,East,100,0.0,0.0,88,0.00,CLR,SKC,0.00,WeatherDisplay:10.37,2013-07-25 07:07:00,
2013-07-25 02:12:00,67.0,63.3,29.97,East,100,0.0,0.0,88,0.00,CLR,SKC,0.00,WeatherDisplay:10.37,2013-07-25 07:12:00,
2013-07-25 02:17:00,66.8,63.1,29.97,East,101,0.0,0.0,88,0.00,CLR,SKC,0.00,WeatherDisplay:10.37,2013-07-25 07:17:00,
2013-07-25 02:22:00,66.7,63.0,29.97,East,101,1.2,0.0,88,0.00,CLR,SKC,0.00,WeatherDisplay:10.37,2013-07-25 07:22:00,
2013-07-25 02:27:00,66.5,62.8,29.97,ESE,113,2.3,2.3,88,0.00,CLR,SKC,0.00,WeatherDisplay:10.37,2013-07-25 07:27:00,
2013-07-25 02:33:00,66.5,62.8,29.96,East,101,1.2,1.2,88,0.00,CLR,SKC,0.00,WeatherDisplay:10.37,2013-07-25 07:33:00,
2013-07-25 02:38:00,66.7,63.0,29.96,ESE,108,2.3,2.3,88,0.00,CLR,SKC,0.00,WeatherDisplay:10.37,2013-07-25 07:38:00,
2013-07-25 02:43:00,66.7,63.0,29.96,ESE,103,3.5,3.5,88,0.00,CLR,SKC,0.00,WeatherDisplay:10.37,2013-07-25 07:43:00,
2013-07-25 02:48:00,66.4,63.1,29.96,East,83,3.5,3.5,89,0.00,CLR,SKC,0.00,WeatherDisplay:10.37,2013-07-25 07:48:00,
2013-07-25 02:53:00,66.2,62.9,29.96,ESE,103,1.2,1.2,89,0.00,CLR,SKC,0.00,WeatherDisplay:10.37,2013-07-25 07:53:00,
2013-07-25 02:58:00,66.2,62.9,29.96,ENE,78,2.3,2.3,89,0.00,CLR,SKC,0.00,WeatherDisplay:10.37,2013-07-25 07:58:00,
2013-07-25 03:03:00,66.4,63.1,29.96,ENE,72,2.3,2.3,89,0.00,CLR,SKC,0.00,WeatherDisplay:10.37,2013-07-25 08:03:00,
2013-07-25 03:08:00,66.4,62.7,29.96,ESE,104,1.2,1.2,88,0.00,CLR,SKC,0.00,WeatherDisplay:10.37,2013-07-25 08:08:00,
2013-07-25 03:13:00,66.5,62.8,29.96,ESE,103,1.2,1.2,88,0.00,CLR,SKC,0.00,WeatherDisplay:10.37,2013-07-25 08:13:00,
2013-07-25 03:18:00,66.6,62.6,29.96,ESE,115,2.3,2.3,87,0.00,CLR,SKC,0.00,WeatherDisplay:10.37,2013-07-25 08:18:00,
2013-07-25 03:23:00,66.9,62.6,29.96,SE,127,2.3,2.3,86,0.00,CLR,SKC,0.00,WeatherDisplay:10.37,2013-07-25 08:23:00,
2013-07-25 03:28:00,67.0,62.3,29.96,SSE,162,1.2,1.2,85,0.00,CLR,SKC,0.00,WeatherDisplay:10.37,2013-07-25 08:28:00,
2013-07-25 03:33:00,67.0,62.3,29.96,SE,145,2.1,2.1,85,0.00,CLR,SKC,0.00,WeatherDisplay:10.37,2013-07-25 08:33:00,
2013-07-25 03:38:00,66.9,62.6,29.96,SE,130,1.2,1.2,86,0.00,CLR,SKC,0.00,WeatherDisplay:10.37,2013-07-25 08:38:00,
2013-07-25 03:43:00,66.8,62.5,29.96,SSE,160,1.2,1.2,86,0.00,CLR,SKC,0.00,WeatherDisplay:10.37,2013-07-25 08:43:00,
2013-07-25 03:48:00,66.8,62.5,29.96,SE,145,1.2,1.2,86,0.00,CLR,SKC,0.00,WeatherDisplay:10.37,2013-07-25 08:48:00,
2013-07-25 03:53:00,66.7,62.7,29.96,SE,143,1.2,0.0,87,0.00,CLR,SKC,0.00,WeatherDisplay:10.37,2013-07-25 08:53:00,
2013-07-25 03:58:00,66.8,62.5,29.96,SSE,151,1.2,1.2,86,0.00,CLR,SKC,0.00,WeatherDisplay:10.37,2013-07-25 08:58:00,
2013-07-25 04:03:00,66.8,62.5,29.97,SE,136,2.3,2.3,86,0.00,CLR,SKC,0.00,WeatherDisplay:10.37,2013-07-25 09:03:00,
2013-07-25 04:08:00,66.9,62.6,29.97,SE,146,0.0,0.0,86,0.00,CLR,SKC,0.00,WeatherDisplay:10.37,2013-07-25 09:08:00,
2013-07-25 04:13:00,66.9,62.6,29.97,SE,146,0.0,0.0,86,0.00,CLR,SKC,0.00,WeatherDisplay:10.37,2013-07-25 09:13:00,
2013-07-25 04:18:00,66.9,62.6,29.96,ESE,116,2.3,2.3,86,0.00,CLR,SKC,0.00,WeatherDisplay:10.37,2013-07-25 09:18:00,
2013-07-25 04:23:00,66.9,62.2,29.97,SSE,165,2.3,2.3,85,0.00,CLR,SKC,0.00,WeatherDisplay:10.37,2013-07-25 09:23:00,
2013-07-25 04:28:00,66.9,62.2,29.96,SE,131,2.3,2.3,85,0.00,CLR,SKC,0.00,WeatherDisplay:10.37,2013-07-25 09:28:00,
2013-07-25 04:33:00,66.7,62.4,29.96,SE,124,2.3,2.3,86,0.00,CLR,SKC,0.00,WeatherDisplay:10.37,2013-07-25 09:33:00,
2013-07-25 04:38:00,66.6,62.3,29.96,SSE,150,1.2,0.0,86,0.00,CLR,SKC,0.00,WeatherDisplay:10.37,2013-07-25 09:38:00,
2013-07-25 04:43:00,66.5,62.2,29.96,South,191,2.1,2.1,86,0.00,CLR,SKC,0.00,WeatherDisplay:10.37,2013-07-25 09:43:00,
2013-07-25 04:48:00,66.4,62.4,29.97,SSW,212,0.0,0.0,87,0.00,CLR,SKC,0.00,WeatherDisplay:10.37,2013-07-25 09:48:00,
2013-07-25 04:53:00,66.4,62.4,29.96,SSW,194,0.0,0.0,87,0.00,CLR,SKC,0.00,WeatherDisplay:10.37,2013-07-25 09:53:00,
2013-07-25 04:58:00,66.3,62.3,29.97,SSW,193,0.0,0.0,87,0.00,CLR,SKC,0.00,WeatherDisplay:10.37,2013-07-25 09:58:00,
2013-07-25 05:03:00,66.3,62.3,29.96,SE,132,0.0,0.0,87,0.00,CLR,SKC,0.00,WeatherDisplay:10.37,2013-07-25 10:03:00,
2013-07-25 05:08:00,66.4,62.4,29.97,SE,132,1.1,1.1,87,0.00,CLR,SKC,0.00,WeatherDisplay:10.37,2013-07-25 10:08:00,
2013-07-25 05:13:00,66.2,62.2,29.96,SE,132,0.0,0.0,87,0.00,CLR,SKC,0.00,WeatherDisplay:10.37,2013-07-25 10:13:00,
2013-07-25 05:18:00,66.0,62.3,29.96,ESE,103,2.3,2.3,88,0.00,CLR,SKC,0.00,WeatherDisplay:10.37,2013-07-25 10:18:00,
2013-07-25 05:23:00,65.8,62.5,29.96,East,89,1.2,1.2,89,0.00,CLR,SKC,0.00,WeatherDisplay:10.37,2013-07-25 10:23:00,
2013-07-25 05:28:00,65.7,62.4,29.96,ESE,111,2.1,2.1,89,0.00,CLR,SKC,0.00,WeatherDisplay:10.37,2013-07-25 10:28:00,
2013-07-25 05:33:00,65.7,62.4,29.96,East,90,1.1,1.1,89,0.00,CLR,SKC,0.00,WeatherDisplay:10.37,2013-07-25 10:33:00,
2013-07-25 05:38:00,65.5,62.2,29.96,East,91,0.0,0.0,89,0.00,CLR,SKC,0.00,WeatherDisplay:10.37,2013-07-25 10:38:00,
2013-07-25 05:43:00,65.5,62.2,29.96,East,91,0.0,0.0,89,0.00,CLR,SKC,0.00,WeatherDisplay:10.37,2013-07-25 10:43:00,
2013-07-25 05:48:00,65.8,62.1,29.96,ESE,120,1.2,1.2,88,0.00,CLR,SKC,0.00,WeatherDisplay:10.37,2013-07-25 10:48:00,
2013-07-25 05:53:00,66.1,62.1,29.96,SSE,167,1.2,1.2,87,0.00,CLR,SKC,0.00,WeatherDisplay:10.37,2013-07-25 10:53:00,
2013-07-25 05:58:00,66.2,62.2,29.96,SSE,167,0.0,0.0,87,0.00,CLR,SKC,0.00,WeatherDisplay:10.37,2013-07-25 10:58:00,
2013-07-25 06:03:00,66.1,62.1,29.97,SSE,167,0.0,0.0,87,0.00,CLR,SKC,0.00,WeatherDisplay:10.37,2013-07-25 11:03:00,
2013-07-25 06:08:00,66.1,62.1,29.97,SSE,165,0.0,0.0,87,0.00,CLR,SKC,0.00,WeatherDisplay:10.37,2013-07-25 11:08:00,
2013-07-25 06:13:00,66.2,61.9,29.97,SSE,165,0.0,0.0,86,0.00,CLR,SKC,0.00,WeatherDisplay:10.37,2013-07-25 11:13:00,
2013-07-25 06:18:00,66.4,62.1,29.96,SE,131,1.2,1.2,86,0.00,CLR,SKC,0.00,WeatherDisplay:10.37,2013-07-25 11:18:00,
2013-07-25 06:23:00,66.6,62.3,29.96,SE,129,1.1,0.0,86,0.00,CLR,SKC,0.00,WeatherDisplay:10.37,2013-07-25 11:23:00,
2013-07-25 06:28:00,66.7,62.0,29.96,SE,132,2.1,2.1,85,0.00,CLR,SKC,0.00,WeatherDisplay:10.37,2013-07-25 11:28:00,
2013-07-25 06:33:00,66.9,61.9,29.96,ESE,105,3.5,3.5,84,0.00,CLR,SKC,0.00,WeatherDisplay:10.37,2013-07-25 11:33:00,
2013-07-25 06:38:00,67.1,62.1,29.95,ESE,116,1.2,1.2,84,0.00,CLR,SKC,0.00,WeatherDisplay:10.37,2013-07-25 11:38:00,
2013-07-25 06:44:00,67.1,62.1,29.96,East,95,1.2,1.2,84,0.00,CLR,SKC,0.00,WeatherDisplay:10.37,2013-07-25 11:44:00,
2013-07-25 06:49:00,66.9,62.2,29.96,ESE,103,1.2,1.2,85,0.00,CLR,SKC,0.00,WeatherDisplay:10.37,2013-07-25 11:49:00,
2013-07-25 06:54:00,66.9,61.9,29.96,ESE,122,3.5,3.5,84,0.00,CLR,SKC,0.00,WeatherDisplay:10.37,2013-07-25 11:54:00,
2013-07-25 06:59:00,67.1,62.1,29.95,ESE,118,2.3,2.3,84,0.00,CLR,SKC,0.00,WeatherDisplay:10.37,2013-07-25 11:59:00,
2013-07-25 07:04:00,67.1,62.1,29.96,SE,134,1.2,1.2,84,0.00,CLR,SKC,0.00,WeatherDisplay:10.37,2013-07-25 12:04:00,
2013-07-25 07:09:00,67.1,62.1,29.96,ESE,114,1.2,0.0,84,0.00,CLR,SKC,0.00,WeatherDisplay:10.37,2013-07-25 12:09:00,
2013-07-25 07:14:00,67.2,62.2,29.96,SE,138,0.0,0.0,84,0.00,CLR,SKC,0.00,WeatherDisplay:10.37,2013-07-25 12:14:00,
2013-07-25 07:19:00,67.4,62.4,29.96,SE,140,0.0,0.0,84,0.00,CLR,SKC,0.00,WeatherDisplay:10.37,2013-07-25 12:19:00,
2013-07-25 07:24:00,67.6,62.3,29.96,SE,141,1.2,0.0,83,0.00,CLR,SKC,0.00,WeatherDisplay:10.37,2013-07-25 12:24:00,
2013-07-25 07:29:00,67.8,62.4,29.97,South,173,1.2,0.0,83,0.00,CLR,SKC,0.00,WeatherDisplay:10.37,2013-07-25 12:29:00,
2013-07-25 07:34:00,68.1,62.7,29.97,SE,141,1.2,1.2,83,0.00,CLR,SKC,0.00,WeatherDisplay:10.37,2013-07-25 12:34:00,
2013-07-25 07:39:00,68.3,62.6,29.97,SSW,198,2.3,2.3,82,0.00,CLR,SKC,0.00,WeatherDisplay:10.37,2013-07-25 12:39:00,
2013-07-25 07:44:00,68.4,63.0,29.97,SE,138,2.1,2.1,83,0.00,CLR,SKC,0.00,WeatherDisplay:10.37,2013-07-25 12:44:00,
2013-07-25 07:49:00,68.5,62.4,29.97,SE,134,3.2,3.2,81,0.00,CLR,SKC,0.00,WeatherDisplay:10.37,2013-07-25 12:49:00,
2013-07-25 07:54:00,68.6,62.5,29.97,SE,143,3.5,3.5,81,0.00,CLR,SKC,0.00,WeatherDisplay:10.37,2013-07-25 12:54:00,
2013-07-25 07:59:00,68.8,62.4,29.97,ESE,117,4.2,4.2,80,0.00,CLR,SKC,0.00,WeatherDisplay:10.37,2013-07-25 12:59:00,
2013-07-25 08:04:00,69.0,62.9,29.97,SE,139,2.3,2.3,81,0.00,CLR,SKC,0.00,WeatherDisplay:10.37,2013-07-25 13:04:00,
2013-07-25 08:09:00,69.2,62.8,29.97,SE,134,3.5,3.5,80,0.00,CLR,SKC,0.00,WeatherDisplay:10.37,2013-07-25 13:09:00,
2013-07-25 08:14:00,69.4,62.6,29.97,ESE,123,4.6,4.6,79,0.00,CLR,SKC,0.00,WeatherDisplay:10.37,2013-07-25 13:14:00,
2013-07-25 08:19:00,69.7,62.5,29.97,ESE,109,4.6,4.6,78,0.00,CLR,SKC,0.00,WeatherDisplay:10.37,2013-07-25 13:19:00,
2013-07-25 08:24:00,70.0,63.2,29.97,SE,130,1.2,1.2,79,0.00,CLR,SKC,0.00,WeatherDisplay:10.37,2013-07-25 13:24:00,
2013-07-25 08:29:00,70.4,62.8,29.97,SE,136,3.5,3.5,77,0.00,CLR,SKC,0.00,WeatherDisplay:10.37,2013-07-25 13:29:00,
2013-07-25 08:34:00,70.6,63.0,29.97,ESE,115,4.6,4.6,77,0.00,CLR,SKC,0.00,WeatherDisplay:10.37,2013-07-25 13:34:00,
2013-07-25 08:39:00,70.8,63.2,29.97,South,169,2.3,2.3,77,0.00,CLR,SKC,0.00,WeatherDisplay:10.37,2013-07-25 13:39:00,
2013-07-25 08:44:00,71.1,63.1,29.97,SSE,158,3.5,3.5,76,0.00,CLR,SKC,0.00,WeatherDisplay:10.37,2013-07-25 13:44:00,
2013-07-25 08:49:00,71.3,63.3,29.97,SE,133,4.6,4.6,76,0.00,CLR,SKC,0.00,WeatherDisplay:10.37,2013-07-25 13:49:00,
2013-07-25 08:54:00,71.6,63.3,29.98,SE,127,4.6,4.6,75,0.00,CLR,SKC,0.00,WeatherDisplay:10.37,2013-07-25 13:54:00,
2013-07-25 08:59:00,71.5,63.2,29.98,SE,125,5.8,5.8,75,0.00,CLR,SKC,0.00,WeatherDisplay:10.37,2013-07-25 13:59:00,
2013-07-25 09:04:00,71.4,63.4,29.97,SSE,160,5.8,5.8,76,0.00,CLR,SKC,0.00,WeatherDisplay:10.37,2013-07-25 14:04:00,
2013-07-25 09:09:00,71.6,63.3,29.97,SE,143,6.4,6.4,75,0.00,CLR,SKC,0.00,WeatherDisplay:10.37,2013-07-25 14:09:00,
2013-07-25 09:14:00,71.9,63.5,29.97,ESE,121,5.8,5.8,75,0.00,CLR,SKC,0.00,WeatherDisplay:10.37,2013-07-25 14:14:00,
2013-07-25 09:19:00,72.1,63.7,29.97,SSE,148,4.6,4.6,75,0.00,CLR,SKC,0.00,WeatherDisplay:10.37,2013-07-25 14:19:00,
2013-07-25 09:24:00,72.5,63.7,29.98,South,171,3.5,3.5,74,0.00,CLR,SKC,0.00,WeatherDisplay:10.37,2013-07-25 14:24:00,
2013-07-25 09:29:00,73.1,64.7,29.98,SSE,162,4.2,4.2,75,0.00,CLR,SKC,0.00,WeatherDisplay:10.37,2013-07-25 14:29:00,
2013-07-25 09:34:00,73.6,64.8,29.97,South,182,6.9,6.9,74,0.00,CLR,SKC,0.00,WeatherDisplay:10.37,2013-07-25 14:34:00,
2013-07-25 09:39:00,74.2,64.6,29.98,SSE,165,7.4,7.4,72,0.00,CLR,SKC,0.00,WeatherDisplay:10.37,2013-07-25 14:39:00,
2013-07-25 09:44:00,74.5,65.3,29.97,SSW,201,6.4,6.4,73,0.00,CLR,SKC,0.00,WeatherDisplay:10.37,2013-07-25 14:44:00,
2013-07-25 09:49:00,74.8,65.2,29.98,SSE,149,6.9,6.9,72,0.00,CLR,SKC,0.00,WeatherDisplay:10.37,2013-07-25 14:49:00,
2013-07-25 09:54:00,74.8,65.2,29.98,SSW,204,5.3,5.3,72,0.00,CLR,SKC,0.00,WeatherDisplay:10.37,2013-07-25 14:54:00,
2013-07-25 09:59:00,74.7,65.5,29.98,SSE,147,5.8,5.8,73,0.00,CLR,SKC,0.00,WeatherDisplay:10.37,2013-07-25 14:59:00,
2013-07-25 10:04:00,74.9,66.4,29.97,SSW,205,2.3,2.3,75,0.00,CLR,SKC,0.00,WeatherDisplay:10.37,2013-07-25 15:04:00,
2013-07-25 10:09:00,75.4,65.7,29.97,South,172,3.5,3.5,72,0.00,CLR,SKC,0.00,WeatherDisplay:10.37,2013-07-25 15:09:00,
2013-07-25 10:14:00,75.9,65.8,29.97,SSW,201,4.2,4.2,71,0.00,CLR,SKC,0.00,WeatherDisplay:10.37,2013-07-25 15:14:00,
2013-07-25 10:19:00,76.4,66.7,29.97,SSE,158,5.8,5.8,72,0.00,CLR,SKC,0.00,WeatherDisplay:10.37,2013-07-25 15:19:00,
2013-07-25 10:24:00,76.8,65.0,29.97,SSE,148,6.9,6.9,67,0.00,CLR,SKC,0.00,WeatherDisplay:10.37,2013-07-25 15:24:00,
2013-07-25 10:29:00,76.8,64.6,29.96,SSE,157,6.9,6.9,66,0.00,CLR,SKC,0.00,WeatherDisplay:10.37,2013-07-25 15:29:00,
2013-07-25 10:34:00,77.0,65.2,29.96,SSW,209,4.2,4.2,67,0.00,CLR,SKC,0.00,WeatherDisplay:10.37,2013-07-25 15:34:00,
2013-07-25 10:39:00,77.1,65.3,29.96,SSE,148,5.3,5.3,67,0.00,CLR,SKC,0.00,WeatherDisplay:10.37,2013-07-25 15:39:00,
2013-07-25 10:44:00,77.2,65.0,29.96,South,182,5.8,5.8,66,0.00,CLR,SKC,0.00,WeatherDisplay:10.37,2013-07-25 15:44:00,
2013-07-25 10:49:00,77.3,65.1,29.96,SSW,208,6.4,6.4,66,0.00,CLR,SKC,0.00,WeatherDisplay:10.37,2013-07-25 15:49:00,
2013-07-25 10:54:00,77.5,65.7,29.95,SE,130,5.8,5.8,67,0.00,CLR,SKC,0.00,WeatherDisplay:10.37,2013-07-25 15:54:00,
2013-07-25 10:59:00,77.5,65.7,29.96,ESE,121,6.9,6.9,67,0.00,CLR,SKC,0.00,WeatherDisplay:10.37,2013-07-25 15:59:00,
2013-07-25 11:04:00,77.7,65.9,29.96,SSE,167,7.4,7.4,67,0.00,CLR,SKC,0.00,WeatherDisplay:10.37,2013-07-25 16:04:00,
2013-07-25 11:09:00,77.7,66.7,29.95,SE,131,5.8,5.8,69,0.00,CLR,SKC,0.00,WeatherDisplay:10.37,2013-07-25 16:09:00,
2013-07-25 11:14:00,78.0,66.6,29.95,SE,127,5.8,5.8,68,0.00,CLR,SKC,0.00,WeatherDisplay:10.37,2013-07-25 16:14:00,
2013-07-25 11:19:00,78.1,65.8,29.95,ESE,122,7.4,7.4,66,0.00,CLR,SKC,0.00,WeatherDisplay:10.37,2013-07-25 16:19:00,
2013-07-25 11:24:00,78.6,67.2,29.95,South,186,6.9,6.9,68,0.00,CLR,SKC,0.00,WeatherDisplay:10.37,2013-07-25 16:24:00,
2013-07-25 11:29:00,79.1,65.9,29.95,SE,139,5.8,5.8,64,0.00,CLR,SKC,0.00,WeatherDisplay:10.37,2013-07-25 16:29:00,
2013-07-25 11:34:00,79.3,67.0,29.95,SE,133,3.5,3.5,66,0.00,CLR,SKC,0.00,WeatherDisplay:10.37,2013-07-25 16:34:00,
2013-07-25 11:39:00,79.7,65.5,29.95,SSE,163,3.0,7.0,62,0.00,CLR,SKC,0.00,WeatherDisplay:10.37,2013-07-25 16:39:00,
2013-07-25 11:44:00,79.7,65.5,29.94,SE,132,6.4,6.4,62,0.00,CLR,SKC,0.00,WeatherDisplay:10.37,2013-07-25 16:44:00,
2013-07-25 11:49:00,79.5,66.3,29.94,SE,141,8.5,8.5,64,0.00,CLR,SKC,0.00,WeatherDisplay:10.37,2013-07-25 16:49:00,
2013-07-25 11:54:00,79.6,65.9,29.94,SSW,196,6.4,6.4,63,0.00,CLR,SKC,0.00,WeatherDisplay:10.37,2013-07-25 16:54:00,
2013-07-25 11:59:00,79.7,66.0,29.94,SSE,147,8.5,8.5,63,0.00,CLR,SKC,0.00,WeatherDisplay:10.37,2013-07-25 16:59:00,
2013-07-25 12:05:00,79.9,66.2,29.94,SSE,155,5.8,5.8,63,0.00,CLR,SKC,0.00,WeatherDisplay:10.37,2013-07-25 17:05:00,
2013-07-25 12:10:00,79.8,66.5,29.95,SSW,193,6.9,6.9,64,0.00,CLR,SKC,0.00,WeatherDisplay:10.37,2013-07-25 17:10:00,
2013-07-25 12:15:00,79.5,66.3,29.94,SSE,152,7.4,7.4,64,0.00,CLR,SKC,0.00,WeatherDisplay:10.37,2013-07-25 17:15:00,
2013-07-25 12:20:00,78.9,66.6,29.94,SE,135,7.4,7.4,66,0.00,CLR,SKC,0.00,WeatherDisplay:10.37,2013-07-25 17:20:00,
2013-07-25 12:25:00,78.5,66.6,29.94,SSE,158,5.8,5.8,67,0.00,CLR,SKC,0.00,WeatherDisplay:10.37,2013-07-25 17:25:00,
2013-07-25 12:30:00,78.4,67.0,29.94,SSE,155,5.3,5.3,68,0.00,CLR,SKC,0.00,WeatherDisplay:10.37,2013-07-25 17:30:00,
2013-07-25 12:35:00,78.3,66.9,29.94,SSE,148,3.5,3.5,68,0.00,CLR,SKC,0.00,WeatherDisplay:10.37,2013-07-25 17:35:00,
2013-07-25 12:40:00,78.3,66.9,29.95,SSE,148,6.9,6.9,68,0.00,CLR,SKC,0.00,WeatherDisplay:10.37,2013-07-25 17:40:00,
2013-07-25 12:45:00,78.6,67.2,29.95,South,178,7.4,7.4,68,0.00,CLR,SKC,0.00,WeatherDisplay:10.37,2013-07-25 17:45:00,
2013-07-25 12:50:00,78.7,66.4,29.94,South,170,7.4,7.4,66,0.00,CLR,SKC,0.00,WeatherDisplay:10.37,2013-07-25 17:50:00,
2013-07-25 12:55:00,78.8,66.5,29.94,SSE,156,6.9,6.9,66,0.00,CLR,SKC,0.00,WeatherDisplay:10.37,2013-07-25 17:55:00,
2013-07-25 13:00:00,79.1,66.8,29.95,South,180,4.6,4.6,66,0.00,CLR,SKC,0.00,WeatherDisplay:10.37,2013-07-25 18:00:00,
2013-07-25 13:05:00,79.3,67.0,29.95,South,173,6.9,6.9,66,0.00,CLR,SKC,0.00,WeatherDisplay:10.37,2013-07-25 18:05:00,
2013-07-25 13:10:00,79.3,67.0,29.95,South,169,5.8,5.8,66,0.00,CLR,SKC,0.00,WeatherDisplay:10.37,2013-07-25 18:10:00,
2013-07-25 13:15:00,79.5,66.3,29.96,SE,142,8.5,8.5,64,0.00,CLR,SKC,0.00,WeatherDisplay:10.37,2013-07-25 18:15:00,
2013-07-25 13:20:00,79.5,66.7,29.96,South,170,8.5,8.5,65,0.00,CLR,SKC,0.00,WeatherDisplay:10.37,2013-07-25 18:20:00,
2013-07-25 13:25:00,79.3,65.1,29.96,SW,216,12.7,12.7,62,0.00,CLR,SKC,0.00,WeatherDisplay:10.37,2013-07-25 18:25:00,
2013-07-25 13:30:00,79.3,66.1,29.95,South,176,9.5,9.5,64,0.00,CLR,SKC,0.00,WeatherDisplay:10.37,2013-07-25 18:30:00,
2013-07-25 13:35:00,79.4,65.7,29.95,SE,137,6.9,6.9,63,0.00,CLR,SKC,0.00,WeatherDisplay:10.37,2013-07-25 18:35:00,
2013-07-25 13:40:00,79.6,66.3,29.95,SSW,205,8.1,8.1,64,0.00,CLR,SKC,0.00,WeatherDisplay:10.37,2013-07-25 18:40:00,
2013-07-25 13:45:00,79.8,65.6,29.94,SSW,212,7.4,7.4,62,0.00,CLR,SKC,0.00,WeatherDisplay:10.37,2013-07-25 18:45:00,
2013-07-25 13:50:00,80.1,65.9,29.95,SSW,205,7.4,7.4,62,0.00,CLR,SKC,0.00,WeatherDisplay:10.37,2013-07-25 18:50:00,
2013-07-25 13:55:00,80.3,67.0,29.95,WSW,240,5.8,5.8,64,0.00,CLR,SKC,0.00,WeatherDisplay:10.37,2013-07-25 18:55:00,
2013-07-25 14:00:00,80.3,66.1,29.95,SSE,165,9.5,9.5,62,0.00,CLR,SKC,0.00,WeatherDisplay:10.37,2013-07-25 19:00:00,
2013-07-25 14:05:00,80.1,65.4,29.95,SW,220,10.6,10.6,61,0.00,CLR,SKC,0.00,WeatherDisplay:10.37,2013-07-25 19:05:00,
2013-07-25 14:10:00,80.1,65.9,29.95,SSW,213,6.9,6.9,62,0.00,CLR,SKC,0.00,WeatherDisplay:10.37,2013-07-25 19:10:00,
2013-07-25 14:15:00,80.1,66.4,29.95,SW,234,7.4,7.4,63,0.00,CLR,SKC,0.00,WeatherDisplay:10.37,2013-07-25 19:15:00,
2013-07-25 14:20:00,80.0,66.3,29.95,SW,228,6.9,6.9,63,0.00,CLR,SKC,0.00,WeatherDisplay:10.37,2013-07-25 19:20:00,
2013-07-25 14:25:00,79.7,66.0,29.95,SW,219,10.4,10.4,63,0.00,CLR,SKC,0.00,WeatherDisplay:10.37,2013-07-25 19:25:00,
2013-07-25 14:30:00,79.5,65.3,29.95,WSW,256,7.4,7.4,62,0.00,CLR,SKC,0.00,WeatherDisplay:10.37,2013-07-25 19:30:00,
2013-07-25 14:35:00,79.2,65.5,29.95,SW,228,6.4,6.4,63,0.00,CLR,SKC,0.00,WeatherDisplay:10.37,2013-07-25 19:35:00,
2013-07-25 14:40:00,79.2,64.1,29.95,West,271,3.5,3.5,60,0.00,CLR,SKC,0.00,WeatherDisplay:10.37,2013-07-25 19:40:00,
2013-07-25 14:45:00,79.0,64.9,29.94,WNW,293,3.5,3.5,62,0.00,CLR,SKC,0.00,WeatherDisplay:10.37,2013-07-25 19:45:00,
2013-07-25 14:50:00,79.0,64.4,29.94,WNW,293,3.5,3.5,61,0.00,CLR,SKC,0.00,WeatherDisplay:10.37,2013-07-25 19:50:00,
2013-07-25 14:55:00,78.8,65.1,29.94,SW,221,1.2,1.2,63,0.00,CLR,SKC,0.00,WeatherDisplay:10.37,2013-07-25 19:55:00,
2013-07-25 15:00:00,78.7,65.5,29.94,South,179,2.3,2.3,64,0.00,CLR,SKC,0.00,WeatherDisplay:10.37,2013-07-25 20:00:00,
2013-07-25 15:05:00,78.1,64.9,29.95,SSW,209,1.2,1.2,64,0.00,CLR,SKC,0.00,WeatherDisplay:10.37,2013-07-25 20:05:00,
2013-07-25 15:10:00,77.8,64.6,29.95,SSE,163,2.3,2.3,64,0.00,CLR,SKC,0.00,WeatherDisplay:10.37,2013-07-25 20:10:00,
2013-07-25 15:15:00,77.6,65.8,29.95,South,174,2.3,2.3,67,0.00,CLR,SKC,0.00,WeatherDisplay:10.37,2013-07-25 20:15:00,
2013-07-25 15:20:00,77.3,66.3,29.95,South,177,5.3,5.3,69,0.00,CLR,SKC,0.00,WeatherDisplay:10.37,2013-07-25 20:20:00,
2013-07-25 15:25:00,76.9,66.0,29.95,SW,236,6.9,6.9,69,0.00,CLR,SKC,0.00,WeatherDisplay:10.37,2013-07-25 20:25:00,
2013-07-25 15:30:00,76.4,65.9,29.96,SW,221,7.4,7.4,70,0.00,CLR,SKC,0.00,WeatherDisplay:10.37,2013-07-25 20:30:00,
2013-07-25 15:35:00,76.0,65.9,29.96,SSE,153,6.9,6.9,71,0.00,CLR,SKC,0.00,WeatherDisplay:10.37,2013-07-25 20:35:00,
2013-07-25 15:40:00,75.7,66.0,29.96,SE,127,5.8,5.8,72,0.00,CLR,SKC,0.00,WeatherDisplay:10.37,2013-07-25 20:40:00,
2013-07-25 15:45:00,75.4,65.7,29.95,SSW,198,6.9,6.9,72,0.00,CLR,SKC,0.00,WeatherDisplay:10.37,2013-07-25 20:45:00,
2013-07-25 15:50:00,75.1,66.6,29.95,SSE,152,3.5,3.5,75,0.00,CLR,SKC,0.00,WeatherDisplay:10.37,2013-07-25 20:50:00,
2013-07-25 15:55:00,74.8,66.7,29.95,SE,139,7.4,7.4,76,0.00,CLR,SKC,0.00,WeatherDisplay:10.37,2013-07-25 20:55:00,
2013-07-25 16:00:00,74.7,67.0,29.95,SSE,154,6.9,6.9,77,0.00,CLR,SKC,0.00,WeatherDisplay:10.37,2013-07-25 21:00:00,
2013-07-25 16:05:00,74.5,66.8,29.95,SSE,151,8.1,8.1,77,0.00,CLR,SKC,0.00,WeatherDisplay:10.37,2013-07-25 21:05:00,
2013-07-25 16:10:00,74.4,66.7,29.95,SSE,164,5.8,5.8,77,0.00,CLR,SKC,0.00,WeatherDisplay:10.37,2013-07-25 21:10:00,
2013-07-25 16:15:00,74.4,67.1,29.95,SSE,159,2.1,2.1,78,0.00,CLR,SKC,0.00,WeatherDisplay:10.37,2013-07-25 21:15:00,
2013-07-25 16:20:00,74.4,66.3,29.95,SSE,162,4.6,4.6,76,0.00,CLR,SKC,0.00,WeatherDisplay:10.37,2013-07-25 21:20:00,
2013-07-25 16:25:00,74.4,64.8,29.95,South,173,6.4,6.4,72,0.00,CLR,SKC,0.00,WeatherDisplay:10.37,2013-07-25 21:25:00,
2013-07-25 16:30:00,74.3,63.9,29.95,SW,225,6.9,6.9,70,0.00,CLR,SKC,0.00,WeatherDisplay:10.37,2013-07-25 21:30:00,
2013-07-25 16:35:00,74.2,64.2,29.95,South,169,8.5,8.5,71,0.00,CLR,SKC,0.00,WeatherDisplay:10.37,2013-07-25 21:35:00,
2013-07-25 16:40:00,74.0,64.4,29.95,South,176,6.9,6.9,72,0.00,CLR,SKC,0.00,WeatherDisplay:10.37,2013-07-25 21:40:00,
2013-07-25 16:45:00,73.9,65.1,29.94,SSE,162,5.8,5.8,74,0.00,CLR,SKC,0.00,WeatherDisplay:10.37,2013-07-25 21:45:00,
2013-07-25 16:50:00,74.0,65.2,29.94,South,181,6.9,6.9,74,0.00,CLR,SKC,0.00,WeatherDisplay:10.37,2013-07-25 21:50:00,
2013-07-25 16:55:00,74.1,65.7,29.94,South,184,7.4,7.4,75,0.00,CLR,SKC,0.00,WeatherDisplay:10.37,2013-07-25 21:55:00,
2013-07-25 17:00:00,74.7,65.9,29.93,South,186,6.4,6.4,74,0.00,CLR,SKC,0.00,WeatherDisplay:10.37,2013-07-25 22:00:00,
2013-07-25 17:05:00,75.2,65.6,29.93,SW,220,6.9,6.9,72,0.00,CLR,SKC,0.00,WeatherDisplay:10.37,2013-07-25 22:05:00,
2013-07-25 17:10:00,75.9,65.8,29.92,SSE,162,10.6,10.6,71,0.00,CLR,SKC,0.00,WeatherDisplay:10.37,2013-07-25 22:10:00,
2013-07-25 17:15:00,76.2,65.7,29.92,SE,143,12.7,12.7,70,0.00,CLR,SKC,0.00,WeatherDisplay:10.37,2013-07-25 22:15:00,
2013-07-25 17:20:00,76.0,66.3,29.92,South,174,7.4,7.4,72,0.00,CLR,SKC,0.00,WeatherDisplay:10.37,2013-07-25 22:20:00,
2013-07-25 17:25:00,75.6,65.9,29.92,SE,141,10.6,10.6,72,0.00,CLR,SKC,0.00,WeatherDisplay:10.37,2013-07-25 22:25:00,
2013-07-25 17:30:00,75.3,66.4,29.92,SE,139,6.9,6.9,74,0.00,CLR,SKC,0.00,WeatherDisplay:10.37,2013-07-25 22:30:00,
2013-07-25 17:35:00,75.2,66.3,29.92,SSW,205,9.2,9.2,74,0.00,CLR,SKC,0.00,WeatherDisplay:10.37,2013-07-25 22:35:00,
2013-07-25 17:41:00,75.4,66.5,29.92,SSE,150,10.4,10.4,74,0.00,CLR,SKC,0.00,WeatherDisplay:10.37,2013-07-25 22:41:00,
2013-07-25 17:46:00,75.4,66.9,29.92,South,191,10.4,10.4,75,0.00,CLR,SKC,0.00,WeatherDisplay:10.37,2013-07-25 22:46:00,
2013-07-25 17:51:00,75.5,66.6,29.92,South,181,8.5,8.5,74,0.00,CLR,SKC,0.00,WeatherDisplay:10.37,2013-07-25 22:51:00,
2013-07-25 17:56:00,75.5,67.0,29.92,South,181,5.8,5.8,75,0.00,CLR,SKC,0.00,WeatherDisplay:10.37,2013-07-25 22:56:00,
2013-07-25 18:01:00,75.6,65.9,29.92,South,169,11.7,11.7,72,0.00,CLR,SKC,0.00,WeatherDisplay:10.37,2013-07-25 23:01:00,
2013-07-25 18:06:00,75.5,65.8,29.92,SSE,162,7.4,7.4,72,0.00,CLR,SKC,0.00,WeatherDisplay:10.37,2013-07-25 23:06:00,
2013-07-25 18:11:00,75.5,66.2,29.92,South,169,4.6,4.6,73,0.00,CLR,SKC,0.00,WeatherDisplay:10.37,2013-07-25 23:11:00,
2013-07-25 18:16:00,75.5,65.4,29.92,SE,142,12.7,12.7,71,0.00,CLR,SKC,0.00,WeatherDisplay:10.37,2013-07-25 23:16:00,
2013-07-25 18:21:00,75.5,65.8,29.92,SE,141,10.4,10.4,72,0.00,CLR,SKC,0.00,WeatherDisplay:10.37,2013-07-25 23:21:00,
2013-07-25 18:26:00,75.5,65.4,29.92,South,181,8.5,8.5,71,0.00,CLR,SKC,0.00,WeatherDisplay:10.37,2013-07-25 23:26:00,
2013-07-25 18:31:00,75.5,65.4,29.92,SW,236,12.7,12.7,71,0.00,CLR,SKC,0.00,WeatherDisplay:10.37,2013-07-25 23:31:00,
2013-07-25 18:36:00,75.7,65.6,29.92,SE,133,12.7,12.7,71,0.00,CLR,SKC,0.00,WeatherDisplay:10.37,2013-07-25 23:36:00,
2013-07-25 18:41:00,75.8,64.9,29.92,SSW,200,9.5,9.5,69,0.00,CLR,SKC,0.00,WeatherDisplay:10.37,2013-07-25 23:41:00,
2013-07-25 18:46:00,75.8,64.1,29.92,SSW,205,13.8,13.8,67,0.00,CLR,SKC,0.00,WeatherDisplay:10.37,2013-07-25 23:46:00,
2013-07-25 18:51:00,75.8,64.1,29.92,SSW,207,9.5,9.5,67,0.00,CLR,SKC,0.00,WeatherDisplay:10.37,2013-07-25 23:51:00,
2013-07-25 18:56:00,75.6,64.3,29.92,SE,142,8.5,8.5,68,0.00,CLR,SKC,0.00,WeatherDisplay:10.37,2013-07-25 23:56:00,
2013-07-25 19:01:00,75.7,64.8,29.93,South,172,12.7,12.7,69,0.00,CLR,SKC,0.00,WeatherDisplay:10.37,2013-07-26 00:01:00,
2013-07-25 19:06:00,75.7,64.8,29.93,SE,140,11.7,11.7,69,0.00,CLR,SKC,0.00,WeatherDisplay:10.37,2013-07-26 00:06:00,
2013-07-25 19:11:00,75.4,64.9,29.93,SW,214,6.9,6.9,70,0.00,CLR,SKC,0.00,WeatherDisplay:10.37,2013-07-26 00:11:00,
2013-07-25 19:16:00,75.3,65.2,29.94,SSW,195,8.5,8.5,71,0.00,CLR,SKC,0.00,WeatherDisplay:10.37,2013-07-26 00:16:00,
2013-07-25 19:21:00,75.3,65.6,29.94,SE,135,6.9,6.9,72,0.00,CLR,SKC,0.00,WeatherDisplay:10.37,2013-07-26 00:21:00,
2013-07-25 19:26:00,75.2,65.6,29.94,SSE,156,6.9,6.9,72,0.00,CLR,SKC,0.00,WeatherDisplay:10.37,2013-07-26 00:26:00,
2013-07-25 19:32:00,75.0,65.8,29.94,South,177,10.6,10.6,73,0.00,CLR,SKC,0.00,WeatherDisplay:10.37,2013-07-26 00:32:00,
2013-07-25 19:37:00,74.9,65.7,29.93,SSW,210,8.5,8.5,73,0.00,CLR,SKC,0.00,WeatherDisplay:10.37,2013-07-26 00:37:00,
2013-07-25 19:42:00,74.8,66.0,29.93,South,190,6.4,6.4,74,0.00,CLR,SKC,0.00,WeatherDisplay:10.37,2013-07-26 00:42:00,
2013-07-25 19:47:00,74.7,65.9,29.93,South,185,6.9,6.9,74,0.00,CLR,SKC,0.00,WeatherDisplay:10.37,2013-07-26 00:47:00,
2013-07-25 19:52:00,74.6,66.1,29.92,SE,146,5.8,5.8,75,0.00,CLR,SKC,0.00,WeatherDisplay:10.37,2013-07-26 00:52:00,
2013-07-25 19:57:00,74.4,66.0,29.92,South,191,5.3,5.3,75,0.00,CLR,SKC,0.00,WeatherDisplay:10.37,2013-07-26 00:57:00,
2013-07-25 20:02:00,74.2,65.8,29.92,SSE,167,4.6,4.6,75,0.00,CLR,SKC,0.00,WeatherDisplay:10.37,2013-07-26 01:02:00,
2013-07-25 20:07:00,74.0,66.0,29.92,SSE,166,7.4,7.4,76,0.00,CLR,SKC,0.00,WeatherDisplay:10.37,2013-07-26 01:07:00,
2013-07-25 20:12:00,73.8,65.8,29.92,SW,231,2.1,2.1,76,0.00,CLR,SKC,0.00,WeatherDisplay:10.37,2013-07-26 01:12:00,
2013-07-25 20:17:00,73.7,66.0,29.92,SSW,209,4.6,4.6,77,0.00,CLR,SKC,0.00,WeatherDisplay:10.37,2013-07-26 01:17:00,
2013-07-25 20:22:00,73.6,65.9,29.92,SSE,165,4.6,4.6,77,0.00,CLR,SKC,0.00,WeatherDisplay:10.37,2013-07-26 01:22:00,
2013-07-25 20:27:00,73.5,66.2,29.92,South,191,4.6,4.6,78,0.00,CLR,SKC,0.00,WeatherDisplay:10.37,2013-07-26 01:27:00,
2013-07-25 20:32:00,73.4,66.1,29.92,SW,229,1.2,1.2,78,0.00,CLR,SKC,0.00,WeatherDisplay:10.37,2013-07-26 01:32:00,
2013-07-25 20:37:00,73.2,66.3,29.92,SSW,193,3.5,3.5,79,0.00,CLR,SKC,0.00,WeatherDisplay:10.37,2013-07-26 01:37:00,
2013-07-25 20:42:00,73.1,66.2,29.92,South,181,2.3,2.3,79,0.00,CLR,SKC,0.00,WeatherDisplay:10.37,2013-07-26 01:42:00,
2013-07-25 20:47:00,72.9,66.4,29.92,SE,137,4.6,4.6,80,0.00,CLR,SKC,0.00,WeatherDisplay:10.37,2013-07-26 01:47:00,
2013-07-25 20:52:00,72.7,66.5,29.92,ESE,110,3.5,3.5,81,0.00,CLR,SKC,0.00,WeatherDisplay:10.37,2013-07-26 01:52:00,
2013-07-25 20:57:00,72.4,66.2,29.92,SE,126,1.2,1.2,81,0.00,CLR,SKC,0.00,WeatherDisplay:10.37,2013-07-26 01:57:00,
2013-07-25 21:02:00,72.4,66.6,29.93,South,190,1.1,1.1,82,0.00,CLR,SKC,0.00,WeatherDisplay:10.37,2013-07-26 02:02:00,
2013-07-25 21:07:00,72.3,66.5,29.93,South,172,2.3,2.3,82,0.00,CLR,SKC,0.00,WeatherDisplay:10.37,2013-07-26 02:07:00,
2013-07-25 21:12:00,72.2,66.4,29.93,SSW,202,0.0,0.0,82,0.00,CLR,SKC,0.00,WeatherDisplay:10.37,2013-07-26 02:12:00,
2013-07-25 21:17:00,72.2,66.4,29.93,SSW,200,2.3,2.3,82,0.00,CLR,SKC,0.00,WeatherDisplay:10.37,2013-07-26 02:17:00,
2013-07-25 21:22:00,72.2,66.7,29.93,SSW,198,0.0,0.0,83,0.00,CLR,SKC,0.00,WeatherDisplay:10.37,2013-07-26 02:22:00,
2013-07-25 21:27:00,72.2,66.7,29.92,SE,139,1.2,1.2,83,0.00,CLR,SKC,0.00,WeatherDisplay:10.37,2013-07-26 02:27:00,
2013-07-25 21:32:00,72.0,66.6,29.92,SE,132,2.3,2.3,83,0.00,CLR,SKC,0.00,WeatherDisplay:10.37,2013-07-26 02:32:00,
2013-07-25 21:37:00,71.9,66.8,29.92,SE,137,2.3,2.3,84,0.00,CLR,SKC,0.00,WeatherDisplay:10.37,2013-07-26 02:37:00,
2013-07-25 21:42:00,71.8,66.7,29.92,SE,145,1.2,1.2,84,0.00,CLR,SKC,0.00,WeatherDisplay:10.37,2013-07-26 02:42:00,
2013-07-25 21:47:00,71.7,66.9,29.92,South,169,0.0,0.0,85,0.00,CLR,SKC,0.00,WeatherDisplay:10.37,2013-07-26 02:47:00,
2013-07-25 21:52:00,71.6,66.8,29.92,SE,141,2.3,2.3,85,0.00,CLR,SKC,0.00,WeatherDisplay:10.37,2013-07-26 02:52:00,
2013-07-25 21:57:00,71.4,66.7,29.92,SSE,160,1.2,1.2,85,0.00,CLR,SKC,0.00,WeatherDisplay:10.37,2013-07-26 02:57:00,
2013-07-25 22:02:00,71.2,66.8,29.92,SE,136,1.2,1.2,86,0.00,CLR,SKC,0.00,WeatherDisplay:10.37,2013-07-26 03:02:00,
2013-07-25 22:07:00,71.0,66.6,29.92,SE,146,1.2,1.2,86,0.00,CLR,SKC,0.00,WeatherDisplay:10.37,2013-07-26 03:07:00,
2013-07-25 22:12:00,70.8,66.7,29.93,SE,146,1.2,1.2,87,0.00,CLR,SKC,0.00,WeatherDisplay:10.37,2013-07-26 03:12:00,
2013-07-25 22:17:00,70.7,66.6,29.93,SE,135,0.0,0.0,87,0.00,CLR,SKC,0.00,WeatherDisplay:10.37,2013-07-26 03:17:00,
2013-07-25 22:22:00,70.6,66.5,29.93,SSE,156,0.0,0.0,87,0.00,CLR,SKC,0.00,WeatherDisplay:10.37,2013-07-26 03:22:00,
2013-07-25 22:27:00,70.6,66.9,29.93,South,172,0.0,0.0,88,0.00,CLR,SKC,0.00,WeatherDisplay:10.37,2013-07-26 03:27:00,
2013-07-25 22:32:00,70.5,66.8,29.93,South,172,0.0,0.0,88,0.00,CLR,SKC,0.00,WeatherDisplay:10.37,2013-07-26 03:32:00,
2013-07-25 22:37:00,70.5,66.8,29.93,SSE,150,1.2,1.2,88,0.00,CLR,SKC,0.00,WeatherDisplay:10.37,2013-07-26 03:37:00,
2013-07-25 22:42:00,70.6,66.9,29.93,SSE,147,1.2,1.2,88,0.00,CLR,SKC,0.00,WeatherDisplay:10.37,2013-07-26 03:42:00,
2013-07-25 22:48:00,70.5,66.8,29.93,SE,136,1.2,0.0,88,0.00,CLR,SKC,0.00,WeatherDisplay:10.37,2013-07-26 03:48:00,
2013-07-25 22:53:00,70.4,67.0,29.93,ESE,121,1.2,1.2,89,0.00,CLR,SKC,0.00,WeatherDisplay:10.37,2013-07-26 03:53:00,
2013-07-25 22:58:00,70.2,66.8,29.93,SSE,147,0.0,0.0,89,0.00,CLR,SKC,0.00,WeatherDisplay:10.37,2013-07-26 03:58:00,
2013-07-25 23:01:00,70.2,66.8,29.93,SE,139,1.2,0.0,89,0.00,CLR,SKC,0.00,WeatherDisplay:10.37,2013-07-26 04:01:00,
2013-07-25 23:02:00,70.2,67.1,29.93,SE,139,1.2,0.0,90,0.00,CLR,SKC,0.00,WeatherDisplay:10.37,2013-07-26 04:02:00,
2013-07-25 23:07:00,70.2,67.1,29.93,SE,139,0.0,0.0,90,0.00,CLR,SKC,0.00,WeatherDisplay:10.37,2013-07-26 04:07:00,
2013-07-25 23:12:00,70.1,67.0,29.93,SE,137,0.0,0.0,90,0.00,CLR,SKC,0.00,WeatherDisplay:10.37,2013-07-26 04:12:00,
2013-07-25 23:17:00,70.1,67.0,29.93,East,99,1.2,1.2,90,0.00,CLR,SKC,0.00,WeatherDisplay:10.37,2013-07-26 04:17:00,
2013-07-25 23:22:00,70.0,66.9,29.93,East,99,1.2,1.2,90,0.00,CLR,SKC,0.00,WeatherDisplay:10.37,2013-07-26 04:22:00,
2013-07-25 23:27:00,69.9,66.8,29.93,East,100,1.2,1.2,90,0.00,CLR,SKC,0.00,WeatherDisplay:10.37,2013-07-26 04:27:00,
2013-07-25 23:32:00,69.7,67.0,29.93,ESE,113,1.2,1.2,91,0.00,CLR,SKC,0.00,WeatherDisplay:10.37,2013-07-26 04:32:00,
2013-07-25 23:37:00,69.5,66.8,29.93,ESE,113,0.0,0.0,91,0.00,CLR,SKC,0.00,WeatherDisplay:10.37,2013-07-26 04:37:00,
2013-07-25 23:42:00,69.5,66.8,29.93,ESE,113,1.1,1.1,91,0.00,CLR,SKC,0.00,WeatherDisplay:10.37,2013-07-26 04:42:00,
2013-07-25 23:47:00,69.4,67.0,29.93,ESE,104,0.0,0.0,92,0.00,CLR,SKC,0.00,WeatherDisplay:10.37,2013-07-26 04:47:00,
2013-07-25 23:52:00,69.3,66.9,29.93,ESE,104,0.0,0.0,92,0.00,CLR,SKC,0.00,WeatherDisplay:10.37,2013-07-26 04:52:00,
2013-07-25 23:57:00,69.5,67.1,29.93,SE,146,1.2,1.2,92,0.00,CLR,SKC,0.00,WeatherDisplay:10.37,2013-07-26 04:57:00,